Location: Crescent
(42.8242°N, 73.7329°W)
Time: 18:30:41
(UTC+00:00)

Vanguard 1 Rocket - Pass Details

Date: 27 February 2026
Orbit: 653 x 4214 km, 34.3° (Epoch: 8 March)

Event Time Altitude Azimuth Distance (km) Brightness Sun altitude
Rises 17:39:48 0° 253° (WSW) 3,624 10.8 38.5°
Reaches altitude 10° 17:41:56 10° 248° (WSW) 2,916 10.5 38.4°
Maximum altitude 17:48:50 52° 173° (S) 1,901 10.8 38.2°
Drops below altitude 10° 18:02:02 10° 103° (ESE) 5,390 11.4 37.6°
Sets 18:07:36 0° 100° (E) 6,984 11.8 37.2°
